This demonstration page uses our WeatherBlox Daily Observations layout. Learn more.

Left ArrowRight Arrow

41.12389, -100.76542

Hourly Observations for September 1, 2019

Temp ( °F °C ) Dew Point ( °F °C ) Humidity (%) Winds ( mph kmh ) Pressure ( in mb ) Visibility ( mi km ) Precip ( " mm )
12:53 am 00:53 Cloudy 66 18.9 63 17.2 90 90 S 7 11 30.09 1019 10 16 0.00 0.00
1:53 am 01:53 Cloudy 66 18.9 63 17.2 90 90 S 9 15 30.07 1018 10 16 0.00 0.00
2:53 am 02:53 Cloudy 66 18.9 63 17.2 90 90 SSW 9 15 30.07 1018 10 16 0.00 0.00
3:28 am 03:28 Cloudy 66 18.9 63 17.2 90 90 SSW 7 11 30.04 1017 10 16 0.00 0.00
3:53 am 03:53 Cloudy 66 18.9 64 17.8 93 93 SSW 7 11 30.05 1018 10 16 0.00 0.00
4:53 am 04:53 Cloudy 67 19.4 64 17.8 91 91 SSW 8 13 30.04 1017 10 16 0.00 0.00
5:53 am 05:53 Cloudy 68 20 65 18.3 90 90 SW 8 13 30.03 1017 10 16 0.00 0.00
6:53 am 06:53 Cloudy 68 20 65 18.3 90 90 SW 9 15 30.04 1017 10 16 0.00 0.00
7:53 am 07:53 Cloudy 69 20.6 65 18.3 87 87 SSW 6 9 30.05 1018 10 16 0.00 0.00
8:53 am 08:53 Cloudy 70 21.1 66 18.9 87 87 SW 7 11 30.05 1018 10 16 0.00 0.00
9:25 am 09:25 Cloudy 71 21.7 66 18.9 84 84 SW 8 13 29.99 1016 10 16 0.00 0.00
9:53 am 09:53 Cloudy 72 22.2 66 18.9 82 82 SSW 10 17 30.05 1018 10 16 0.00 0.00
10:53 am 10:53 Cloudy 74 23.3 67 19.4 79 79 SSW 9 15 30.05 1018 10 16 0.00 0.00
11:49 am 11:49 Cloudy 75 24 66 19 74 74 S 10 17 29.95 1014 10 16 0.00 0.00
11:53 am 11:53 Mostly Cloudy 76 24.4 67 19.4 74 74 SSW 10 17 30.03 1017 10 16 0.00 0.00
12:12 pm 12:12 Partly Cloudy 77 25 68 20 74 74 VRB 7 11 29.93 1014 10 16 0.00 0.00
12:53 pm 12:53 Sunny 79 26.1 68 20 69 69 VRB 5 7 30.00 1016 10 16 0.00 0.00
1:53 pm 13:53 Sunny 82 27.8 69 20.6 65 65 SSW 8 13 29.99 1016 10 16 0.00 0.00
2:53 pm 14:53 Sunny 84 28.9 68 20 59 59 S 12 19 29.96 1015 10 16 0.00 0.00
3:53 pm 15:53 Sunny 86 30 70 21.1 59 59 SSW 12 19 29.93 1014 10 16 0.00 0.00
4:53 pm 16:53 Sunny 87 30.6 71 21.7 59 59 S 12 19 29.92 1013 10 16 0.00 0.00
5:53 pm 17:53 Sunny 85 29.4 70 21.1 61 61 S 15 24 29.91 1013 10 16 0.00 0.00
6:53 pm 18:53 Sunny 83 28.3 70 21.1 65 65 S 10 17 29.92 1013 10 16 0.00 0.00
7:53 pm 19:53 Mostly Sunny 79 26.1 69 20.6 72 72 SSE 6 9 29.94 1014 10 16 0.00 0.00
8:53 pm 20:53 Clear 74 23.3 69 20.6 85 85 ESE 6 9 29.97 1015 10 16 0.00 0.00
9:53 pm 21:53 Clear 74 23.3 69 20.6 85 85 SSE 8 13 29.98 1015 10 16 0.00 0.00
10:53 pm 22:53 Clear 74 23.3 69 20.6 85 85 SSE 10 17 29.98 1015 10 16 0.00 0.00
11:53 pm 23:53 Partly Cloudy 72 22.2 69 20.6 91 91 SSE 9 15 29.99 1016 10 16 0.00 0.00

Powered by AerisWeather